Weather History for Cambridge, MN

Change the Weather History Date:

Thursday, May 30, 2013

  Actual Average Record
Temperature  
Mean Temperature 70 °F -  
Max Temperature 77 °F 71 °F 132 °F (1998)
Min Temperature 62 °F 48 °F 36 °F (1990)
Cooling Degree Days 4    
Growing Degree Days 20 (Base 50)    
Moisture  
Dew Point 63 °F    
Average Humidity 86    
Maximum Humidity 94    
Minimum Humidity 69    
Precipitation  
Precipitation 0.47 in - - ()
Sea Level Pressure  
Sea Level Pressure 29.57 in    
Wind  
Wind Speed 8 mph (SE)    
Max Wind Speed 18 mph    
Max Gust Speed 25 mph    
Visibility 10 miles    
Events Rain    
Averages and records for this station are not official NWS values.
T = Trace of Precipitation, MM = Missing Value Source: NWS Daily Summary

Daily Weather History Graph

Daily Weather History Graph

Search for Another Location

Airport:

Trip Planner

Search our weather history database for the weather conditions in past years. The results will help you decide how hot, cold, wet, or windy it might be!

Date:

Astronomy

May. 30, 2013 Rise Set
Actual Time 5:28 AM CDT 8:53 PM CDT
Civil Twilight 4:51 AM CDT 9:30 PM CDT
Nautical Twilight 4:03 AM CDT 10:18 PM CDT
Astronomical Twilight 3:02 AM CDT 11:20 PM CDT
Moon 12:43 AM CDT (5/30) 11:49 AM CDT (5/30)
Length of Visible Light 16h 38m
Length of Day
15h 24m
Waning Gibbous, 62% of the Moon is Illuminated
May 30
Waning Gibbous
May 31
Last Quarter
Jun 8
New
Jun 16
First Quarter
Jun 23
Full

Hourly Weather History & Observations

Time (CDT) Temp. Dew Point Humidity Pressure Visibility Wind Dir Wind Speed Gust Speed Precip Events Conditions
12:15 AM 64.4 °F 60.8 °F 88% 29.67 in 10.0 mi SSE 5.8 mph - 0.02 in Rain Light Rain
12:34 AM 62.6 °F 60.8 °F 94% 29.67 in 1.8 mi SE 10.4 mph - 0.04 in Rain Heavy Rain
12:55 AM 62.6 °F 60.8 °F 94% 29.67 in 7.0 mi SE 11.5 mph 18.4 mph 0.07 in Rain Rain
1:14 AM 62.6 °F 60.8 °F 94% 29.68 in 7.0 mi SE 6.9 mph - 0.02 in Rain Rain
1:35 AM 62.6 °F 60.8 °F 94% 29.65 in 10.0 mi ESE 6.9 mph - 0.05 in Rain Light Rain
1:54 AM 62.6 °F 60.8 °F 94% 29.65 in 10.0 mi East 8.1 mph - 0.07 in   Overcast
2:15 AM 62.6 °F 60.8 °F 94% 29.65 in 10.0 mi ESE 8.1 mph - 0.03 in Rain Light Rain
2:34 AM 62.6 °F 60.8 °F 94% 29.64 in 10.0 mi ESE 6.9 mph - 0.06 in Rain Light Rain
2:55 AM 62.6 °F 60.8 °F 94% 29.64 in 10.0 mi ESE 6.9 mph - 0.09 in Rain Light Rain
3:15 AM 62.6 °F 60.8 °F 94% 29.63 in 10.0 mi SE 8.1 mph - 0.03 in   Overcast
3:35 AM 62.6 °F 60.8 °F 94% 29.62 in 10.0 mi SE 8.1 mph - 0.07 in   Mostly Cloudy
3:55 AM 62.6 °F 60.8 °F 94% 29.61 in 10.0 mi ESE 6.9 mph - 0.11 in   Mostly Cloudy
4:15 AM 62.6 °F 60.8 °F 94% 29.60 in 10.0 mi ESE 9.2 mph - 0.03 in   Scattered Clouds
4:35 AM 64.4 °F 60.8 °F 88% 29.59 in 10.0 mi ESE 6.9 mph - 0.06 in   Scattered Clouds
4:55 AM 64.4 °F 60.8 °F 88% 29.58 in 10.0 mi ESE 5.8 mph - 0.08 in   Clear
5:15 AM 64.4 °F 62.6 °F 94% 29.58 in 10.0 mi ESE 5.8 mph - N/A   Scattered Clouds
5:34 AM 64.4 °F 62.6 °F 94% 29.58 in 10.0 mi SE 4.6 mph - N/A   Mostly Cloudy
5:55 AM 64.4 °F 62.6 °F 94% 29.58 in 10.0 mi ESE 6.9 mph - N/A   Mostly Cloudy
6:15 AM 66.2 °F 62.6 °F 88% 29.58 in 10.0 mi SE 5.8 mph - N/A   Mostly Cloudy
6:34 AM 66.2 °F 62.6 °F 88% 29.58 in 10.0 mi ESE 9.2 mph - N/A   Scattered Clouds
6:55 AM 66.2 °F 62.6 °F 88% 29.57 in 10.0 mi SE 6.9 mph - N/A   Scattered Clouds
7:14 AM 66.2 °F 62.6 °F 88% 29.56 in 10.0 mi ESE 8.1 mph - N/A   Clear
7:35 AM 66.2 °F 64.4 °F 94% 29.56 in 10.0 mi ESE 10.4 mph 16.1 mph N/A   Clear
7:55 AM 68.0 °F 64.4 °F 88% 29.55 in 10.0 mi ESE 9.2 mph - 0.01 in   Clear
8:15 AM 69.8 °F 64.4 °F 83% 29.56 in 10.0 mi SE 8.1 mph 18.4 mph N/A   Clear
8:34 AM 69.8 °F 64.4 °F 83% 29.56 in 10.0 mi SE 15.0 mph 23.0 mph N/A   Clear
8:55 AM 69.8 °F 64.4 °F 83% 29.59 in 10.0 mi SSE 10.4 mph 19.6 mph N/A   Scattered Clouds
9:15 AM 69.8 °F 64.4 °F 83% 29.60 in 10.0 mi SSE 13.8 mph - N/A   Mostly Cloudy
9:34 AM 69.8 °F 64.4 °F 83% 29.59 in 10.0 mi SE 12.7 mph 18.4 mph N/A   Mostly Cloudy
9:55 AM 71.6 °F 66.2 °F 83% 29.58 in 10.0 mi SSE 8.1 mph 19.6 mph N/A   Mostly Cloudy
10:14 AM 71.6 °F 64.4 °F 78% 29.58 in 10.0 mi SSE 10.4 mph 17.3 mph N/A   Mostly Cloudy
10:35 AM 71.6 °F 64.4 °F 78% 29.57 in 10.0 mi SSE 11.5 mph 21.9 mph N/A   Mostly Cloudy
10:55 AM 71.6 °F 64.4 °F 78% 29.59 in 10.0 mi South 18.4 mph 25.3 mph N/A   Overcast
11:14 AM 71.6 °F 64.4 °F 78% 29.59 in 10.0 mi South 12.7 mph - N/A   Mostly Cloudy
11:35 AM 71.6 °F 62.6 °F 73% 29.59 in 10.0 mi South 11.5 mph 24.2 mph N/A   Mostly Cloudy
11:54 AM 69.8 °F 62.6 °F 78% 29.59 in 10.0 mi SSE 10.4 mph - N/A   Mostly Cloudy
12:15 PM 71.6 °F 64.4 °F 78% 29.59 in 10.0 mi SSE 12.7 mph 17.3 mph N/A   Mostly Cloudy
12:35 PM 71.6 °F 64.4 °F 78% 29.59 in 10.0 mi South 13.8 mph 21.9 mph N/A   Scattered Clouds
12:54 PM 71.6 °F 64.4 °F 78% 29.59 in 10.0 mi SSE 10.4 mph 19.6 mph N/A   Scattered Clouds
1:15 PM 71.6 °F 64.4 °F 78% 29.60 in 10.0 mi SSE 15.0 mph 20.7 mph N/A   Mostly Cloudy
1:34 PM 71.6 °F 64.4 °F 78% 29.60 in 10.0 mi South 11.5 mph - N/A   Scattered Clouds
1:55 PM 73.4 °F 64.4 °F 73% 29.59 in 10.0 mi SSE 11.5 mph 19.6 mph N/A   Scattered Clouds
2:15 PM 73.4 °F 66.2 °F 78% 29.58 in 10.0 mi SSE 12.7 mph 17.3 mph N/A   Scattered Clouds
2:34 PM 71.6 °F 64.4 °F 78% 29.58 in 10.0 mi SSE 12.7 mph 20.7 mph N/A   Scattered Clouds
2:55 PM 73.4 °F 64.4 °F 73% 29.58 in 10.0 mi SSE 15.0 mph 19.6 mph N/A   Scattered Clouds
3:14 PM 73.4 °F 64.4 °F 73% 29.56 in 10.0 mi SSE 12.7 mph - N/A   Scattered Clouds
3:35 PM 75.2 °F 66.2 °F 73% 29.56 in 10.0 mi SSE 17.3 mph 20.7 mph N/A   Clear
3:54 PM 75.2 °F 66.2 °F 73% 29.55 in 10.0 mi South 17.3 mph 23.0 mph N/A   Clear
4:15 PM 77.0 °F 66.2 °F 69% 29.55 in 10.0 mi South 16.1 mph 21.9 mph N/A   Clear
4:35 PM 75.2 °F 66.2 °F 73% 29.54 in 10.0 mi SSE 17.3 mph - N/A   Scattered Clouds
4:55 PM 75.2 °F 66.2 °F 73% 29.53 in 10.0 mi SSE 11.5 mph 20.7 mph N/A   Scattered Clouds
5:15 PM 75.2 °F 66.2 °F 73% 29.53 in 10.0 mi SSE 8.1 mph - N/A   Scattered Clouds
5:34 PM 75.2 °F 66.2 °F 73% 29.53 in 10.0 mi SSE 10.4 mph 16.1 mph N/A   Mostly Cloudy
5:54 PM 66.2 °F 62.6 °F 88% 29.54 in 3.0 mi SE 6.9 mph 25.3 mph N/A Rain Rain
6:15 PM 66.2 °F 62.6 °F 88% 29.53 in 10.0 mi SE 5.8 mph - 0.01 in   Mostly Cloudy
6:34 PM 66.2 °F 64.4 °F 94% 29.52 in 10.0 mi SE 4.6 mph - 0.02 in   Scattered Clouds
6:55 PM 66.2 °F 62.6 °F 88% 29.52 in 10.0 mi SE 4.6 mph - 0.03 in Rain Light Rain
7:15 PM 66.2 °F 64.4 °F 94% 29.52 in 7.0 mi SE 4.6 mph - 0.01 in Rain Light Rain
7:35 PM 66.2 °F 64.4 °F 94% 29.52 in 10.0 mi ESE 3.5 mph - 0.01 in Rain Light Rain
7:54 PM 66.2 °F 64.4 °F 94% 29.52 in 10.0 mi Calm Calm - 0.01 in Rain Light Rain
8:15 PM 66.2 °F 64.4 °F 94% 29.53 in 10.0 mi Calm Calm - N/A Rain Light Rain
8:35 PM 66.2 °F 62.6 °F 88% 29.52 in 10.0 mi SE 3.5 mph - N/A   Scattered Clouds
8:55 PM 66.2 °F 64.4 °F 94% 29.52 in 10.0 mi Calm Calm - N/A   Scattered Clouds
9:15 PM 66.2 °F 62.6 °F 88% 29.52 in 10.0 mi Calm Calm - N/A   Scattered Clouds
9:34 PM 66.2 °F 62.6 °F 88% 29.52 in 7.0 mi Calm Calm - N/A   Scattered Clouds
9:55 PM 66.2 °F 62.6 °F 88% 29.52 in 10.0 mi Calm Calm - N/A   Scattered Clouds
10:15 PM 66.2 °F 62.6 °F 88% 29.52 in 10.0 mi SE 4.6 mph - N/A   Scattered Clouds
10:34 PM 66.2 °F 62.6 °F 88% 29.53 in 10.0 mi SSE 4.6 mph - N/A   Scattered Clouds
10:55 PM 64.4 °F 62.6 °F 94% 29.53 in 10.0 mi SE 4.6 mph - N/A   Clear
11:14 PM 64.4 °F 62.6 °F 94% 29.53 in 10.0 mi SE 3.5 mph - N/A   Scattered Clouds
11:35 PM 64.4 °F 62.6 °F 94% 29.53 in 10.0 mi SE 4.6 mph - N/A   Scattered Clouds
11:54 PM 64.4 °F 60.8 °F 88% 29.52 in 10.0 mi SE 3.5 mph - N/A   Scattered Clouds